Change the Weather History Date:

Friday, October 8, 2010

  Actual Average Record
Temperature  
Mean Temperature 70 °F 68 °F  
Max Temperature 82 °F 80 °F 102 °F (1979)
Min Temperature 58 °F 57 °F 34 °F (1921)
Degree Days  
Heating Degree Days 0 2  
Month to date heating degree days 8 12  
Since 1 July heating degree days 10 23  
Cooling Degree Days 5 5  
Month to date cooling degree days 31 46  
Year to date cooling degree days 2549 2317  
Growing Degree Days 20 (Base 50)    
Moisture  
Dew Point 41 °F    
Average Humidity 38    
Maximum Humidity 55    
Minimum Humidity 20    
Precipitation  
Precipitation 0.00 in 0.09 in 3.57 in (2011)
Month to date precipitation 0.00 0.70  
Year to date precipitation 24.92 19.90  
Sea Level Pressure  
Sea Level Pressure 30.08 in    
Wind  
Wind Speed 7 mph (South)    
Max Wind Speed 16 mph    
Max Gust Speed 21 mph    
Visibility 10 miles    
Events      
T = Trace of Precipitation, MM = Missing Value Source: NWS Daily Summary

Daily Weather History Graph

Daily Weather History Graph

Search for Another Location

Airport or City:

Trip Planner

Search our weather history database for the weather conditions in past years. The results will help you decide how hot, cold, wet, or windy it might be!

Date:

Astronomy

Oct. 08, 2010 Rise Set
Actual Time 7:37 AM CDT 7:14 PM CDT
Civil Twilight 7:12 AM CDT 7:39 PM CDT
Nautical Twilight 6:44 AM CDT 8:07 PM CDT
Astronomical Twilight 6:16 AM CDT 8:35 PM CDT
Moon 8:37 AM CDT (10/8) 7:39 PM CDT (10/8)
Length of Visible Light 12h 26m
Length of Day
11h 36m
New Moon, 1% of the Moon is Illuminated
Oct 8
New Moon
Oct 14
First Quarter
Oct 22
Full
Oct 30
Last Quarter
Nov 5
New

Hourly Weather History & Observations

Time (CDT) Temp. Dew Point Humidity Pressure Visibility Wind Dir Wind Speed Gust Speed Precip Events Conditions
12:52 AM 62.1 °F 39.9 °F 44% 30.12 in 10.0 mi South 6.9 mph - N/A   Clear
1:52 AM 60.1 °F 39.0 °F 46% 30.11 in 10.0 mi South 6.9 mph - N/A   Clear
2:52 AM 62.1 °F 39.0 °F 43% 30.09 in 10.0 mi SSE 8.1 mph - N/A   Clear
3:52 AM 61.0 °F 39.9 °F 46% 30.08 in 10.0 mi South 5.8 mph - N/A   Clear
4:52 AM 61.0 °F 41.0 °F 48% 30.08 in 10.0 mi South 6.9 mph - N/A   Clear
5:52 AM 59.0 °F 41.0 °F 51% 30.09 in 10.0 mi SSW 5.8 mph - N/A   Clear
6:52 AM 57.9 °F 41.0 °F 53% 30.10 in 10.0 mi South 5.8 mph - N/A   Clear
7:52 AM 59.0 °F 42.1 °F 53% 30.13 in 10.0 mi Calm Calm - N/A   Clear
8:52 AM 62.1 °F 44.1 °F 52% 30.15 in 10.0 mi South 4.6 mph - N/A   Clear
9:52 AM 69.1 °F 43.0 °F 39% 30.15 in 10.0 mi SW 10.4 mph - N/A   Clear
10:52 AM 73.0 °F 45.0 °F 37% 30.15 in 10.0 mi SW 8.1 mph - N/A   Clear
11:52 AM 78.1 °F 45.0 °F 31% 30.14 in 10.0 mi WSW 8.1 mph - N/A   Clear
12:52 PM 79.0 °F 41.0 °F 26% 30.12 in 10.0 mi South 12.7 mph 17.3 mph N/A   Clear
1:52 PM 80.1 °F 42.1 °F 26% 30.09 in 10.0 mi WSW 10.4 mph - N/A   Clear
2:52 PM 82.0 °F 37.9 °F 21% 30.06 in 10.0 mi SSW 13.8 mph 18.4 mph N/A   Clear
3:52 PM 82.0 °F 39.9 °F 22% 30.05 in 10.0 mi SSW 10.4 mph - N/A   Clear
4:52 PM 82.0 °F 39.9 °F 22% 30.03 in 10.0 mi SSW 11.5 mph - N/A   Clear
5:52 PM 81.0 °F 41.0 °F 24% 30.02 in 10.0 mi SSW 9.2 mph - N/A   Clear
6:52 PM 78.1 °F 43.0 °F 29% 30.02 in 10.0 mi Calm Calm - N/A   Clear
7:52 PM 72.0 °F 39.9 °F 31% 30.03 in 10.0 mi SSE 6.9 mph - N/A   Clear
8:52 PM 66.0 °F 39.9 °F 38% 30.05 in 10.0 mi South 4.6 mph - N/A   Clear
9:52 PM 64.9 °F 39.9 °F 40% 30.05 in 10.0 mi SE 6.9 mph - N/A   Clear
10:52 PM 62.1 °F 39.9 °F 44% 30.05 in 10.0 mi SE 4.6 mph - N/A   Clear
11:52 PM 61.0 °F 41.0 °F 48% 30.05 in 10.0 mi SSE 8.1 mph - N/A   Clear